AAL398 TNCC-KCLT

Flight info

Callsign AAL398
Flight time 4h 6m
Altitude 34000
Route KARUM1K KARUM DCT HOFER DCT PTA UL339 SEKAR Y397 RENAH Y588 BROOM/M079F340 DCT JAINS/N0458F340 Y436 PITRW STOCR4
Aircraft A321/M-SDE3FGHIRWY/LB1

Departure

Time 2026-04-22 03:26
Airport Hato International Airport (TNCC)

Arrival

Time 2026-04-22 07:32
Airport Charlotte Douglas International Airport (KCLT)
Time Latitude Longitude Altitude Speed Heading
2026-04-22 03:00 12.18672 -68.96102 28 ft 0 kts 183°
2026-04-22 03:18 12.18693 -68.96101 28 ft 4 kts 182°
2026-04-22 03:19 12.18719 -68.96102 28 ft 4 kts 154°
2026-04-22 03:19 12.18730 -68.96112 28 ft 0 kts 102°
2026-04-22 03:20 12.18729 -68.96110 28 ft 1 kts 110°
2026-04-22 03:20 12.18719 -68.96131 28 ft 8 kts 267°
2026-04-22 03:21 12.18734 -68.96189 28 ft 9 kts 289°
2026-04-22 03:21 12.18756 -68.96249 28 ft 9 kts 290°
2026-04-22 03:21 12.18775 -68.96314 28 ft 10 kts 285°
2026-04-22 03:21 12.18789 -68.96366 28 ft 8 kts 284°
2026-04-22 03:22 12.18801 -68.96421 28 ft 8 kts 282°
2026-04-22 03:22 12.18816 -68.96489 28 ft 12 kts 283°
2026-04-22 03:22 12.18838 -68.96593 27 ft 18 kts 282°
2026-04-22 03:22 12.18871 -68.96732 27 ft 22 kts 283°
2026-04-22 03:23 12.18906 -68.96892 26 ft 23 kts 282°
2026-04-22 03:23 12.18940 -68.97054 26 ft 23 kts 281°
2026-04-22 03:23 12.18972 -68.97218 28 ft 24 kts 281°
2026-04-22 03:23 12.19004 -68.97384 28 ft 24 kts 281°
2026-04-22 03:24 12.19040 -68.97549 26 ft 24 kts 287°
2026-04-22 03:24 12.19163 -68.97581 28 ft 21 kts 30°
2026-04-22 03:24 12.19210 -68.97459 26 ft 15 kts 102°
2026-04-22 03:24 12.19187 -68.97361 26 ft 13 kts 103°
2026-04-22 03:25 12.19166 -68.97261 30 ft 19 kts 102°
2026-04-22 03:25 12.19090 -68.96913 26 ft 84 kts 102°
2026-04-22 03:25 12.18927 -68.96132 30 ft 139 kts 102°
2026-04-22 03:25 12.18692 -68.95027 168 ft 168 kts 102°
2026-04-22 03:26 12.18465 -68.94008 1187 ft 135 kts 101°
2026-04-22 03:26 12.18258 -68.93051 1691 ft 141 kts 101°
2026-04-22 03:26 12.18050 -68.92062 2225 ft 143 kts 100°
2026-04-22 03:26 12.17838 -68.91053 2639 ft 147 kts 100°
2026-04-22 03:27 12.17619 -68.90018 3065 ft 150 kts 101°
2026-04-22 03:27 12.17571 -68.88953 3481 ft 153 kts 76°
2026-04-22 03:27 12.18068 -68.87982 3871 ft 159 kts 50°
2026-04-22 03:27 12.19001 -68.87345 4263 ft 167 kts 22°
2026-04-22 03:28 12.20117 -68.86981 4684 ft 170 kts 21°
2026-04-22 03:28 12.21249 -68.86608 5093 ft 172 kts 22°
2026-04-22 03:28 12.22393 -68.86231 5501 ft 174 kts 21°
2026-04-22 03:28 12.23550 -68.85849 5920 ft 176 kts 22°
2026-04-22 03:29 12.24719 -68.85462 6346 ft 178 kts 21°
2026-04-22 03:29 12.25902 -68.85071 6725 ft 181 kts 21°
2026-04-22 03:29 12.27152 -68.84652 6869 ft 198 kts 21°
2026-04-22 03:29 12.28511 -68.84197 6996 ft 213 kts 21°
2026-04-22 03:30 12.29960 -68.83713 7118 ft 225 kts 20°
2026-04-22 03:30 12.31486 -68.83205 7247 ft 235 kts 20°
2026-04-22 03:30 12.33060 -68.82685 7448 ft 240 kts 19°
2026-04-22 03:30 12.34648 -68.82162 7714 ft 240 kts 20°
2026-04-22 03:31 12.36231 -68.81637 7992 ft 240 kts 19°
2026-04-22 03:31 12.37825 -68.81106 8232 ft 241 kts 19°
2026-04-22 03:31 12.39426 -68.80574 8489 ft 242 kts 19°
2026-04-22 03:31 12.41025 -68.80043 8756 ft 242 kts 19°
2026-04-22 03:32 12.42633 -68.79508 8976 ft 245 kts 18°
2026-04-22 03:32 12.44299 -68.78953 9067 ft 260 kts 18°
2026-04-22 03:32 12.46088 -68.78357 9197 ft 279 kts 18°
2026-04-22 03:32 12.47942 -68.77738 9629 ft 287 kts 18°
2026-04-22 03:33 12.49846 -68.77099 10142 ft 292 kts 18°
2026-04-22 03:33 12.51842 -68.76430 10263 ft 311 kts 18°
2026-04-22 03:33 12.53962 -68.75721 10386 ft 329 kts 18°
2026-04-22 03:33 12.56195 -68.74974 10505 ft 347 kts 18°
2026-04-22 03:34 12.58540 -68.74191 10647 ft 361 kts 18°
2026-04-22 03:34 12.60955 -68.73385 11043 ft 367 kts 18°
2026-04-22 03:34 12.63411 -68.72605 11500 ft 371 kts 13°
2026-04-22 03:34 12.65960 -68.72195 12016 ft 373 kts
2026-04-22 03:35 12.68562 -68.72250 12496 ft 376 kts 353°
2026-04-22 03:35 12.71144 -68.72723 12999 ft 378 kts 349°
2026-04-22 03:35 12.73727 -68.73251 13512 ft 380 kts 349°
2026-04-22 03:35 12.76338 -68.73780 13960 ft 384 kts 349°
2026-04-22 03:36 12.78965 -68.74310 14406 ft 386 kts 349°
2026-04-22 03:36 12.81612 -68.74844 14813 ft 389 kts 349°
2026-04-22 03:36 12.84281 -68.75383 15211 ft 393 kts 349°
2026-04-22 03:36 12.86971 -68.75923 15634 ft 395 kts 349°
2026-04-22 03:37 12.89686 -68.76470 16031 ft 399 kts 349°
2026-04-22 03:37 12.92421 -68.77023 16438 ft 402 kts 349°
2026-04-22 03:37 12.95170 -68.77578 16842 ft 405 kts 349°
2026-04-22 03:37 12.97947 -68.78139 17232 ft 408 kts 349°
2026-04-22 03:38 13.00739 -68.78704 17661 ft 410 kts 349°
2026-04-22 03:38 13.03553 -68.79273 18048 ft 414 kts 349°
2026-04-22 03:38 13.06386 -68.79845 18405 ft 417 kts 349°
2026-04-22 03:38 13.09236 -68.80421 18750 ft 419 kts 349°
2026-04-22 03:39 13.12105 -68.81001 19081 ft 421 kts 349°
2026-04-22 03:39 13.14984 -68.81583 19434 ft 422 kts 349°
2026-04-22 03:39 13.17874 -68.82171 19759 ft 425 kts 349°
2026-04-22 03:39 13.20780 -68.82762 20078 ft 427 kts 349°
2026-04-22 03:40 13.23693 -68.83353 20407 ft 428 kts 349°
2026-04-22 03:40 13.26623 -68.83945 20699 ft 430 kts 349°
2026-04-22 03:40 13.29568 -68.84539 21032 ft 432 kts 348°
2026-04-22 03:40 13.32520 -68.85134 21339 ft 433 kts 349°
2026-04-22 03:41 13.35443 -68.85725 21638 ft 435 kts 348°
2026-04-22 03:41 13.38411 -68.86327 21959 ft 436 kts 348°
2026-04-22 03:41 13.41394 -68.86933 22222 ft 438 kts 348°
2026-04-22 03:41 13.44390 -68.87541 22526 ft 439 kts 348°
2026-04-22 03:42 13.47394 -68.88151 22787 ft 442 kts 348°
2026-04-22 03:42 13.50414 -68.88766 23059 ft 443 kts 348°
2026-04-22 03:42 13.53446 -68.89381 23353 ft 444 kts 348°
2026-04-22 03:42 13.56483 -68.90001 23594 ft 446 kts 348°
2026-04-22 03:43 13.59532 -68.90624 23852 ft 447 kts 348°
2026-04-22 03:43 13.62592 -68.91248 24053 ft 450 kts 347°
2026-04-22 03:43 13.65665 -68.91874 24280 ft 451 kts 347°
2026-04-22 03:43 13.68753 -68.92503 24493 ft 453 kts 348°
2026-04-22 03:44 13.71849 -68.93133 24693 ft 455 kts 347°
2026-04-22 03:44 13.74957 -68.93765 24922 ft 456 kts 348°
2026-04-22 03:44 13.78079 -68.94398 25119 ft 458 kts 348°
2026-04-22 03:44 13.81210 -68.95033 25343 ft 460 kts 347°
2026-04-22 03:45 13.84358 -68.95673 25530 ft 462 kts 347°
2026-04-22 03:45 13.87512 -68.96315 25735 ft 463 kts 347°
2026-04-22 03:45 13.90679 -68.96959 25938 ft 465 kts 348°
2026-04-22 03:45 13.93859 -68.97604 26125 ft 467 kts 347°
2026-04-22 03:46 13.97053 -68.98252 26333 ft 468 kts 347°
2026-04-22 03:46 14.00253 -68.98908 26548 ft 469 kts 347°
2026-04-22 03:46 14.03461 -68.99564 26782 ft 471 kts 347°
2026-04-22 03:46 14.06636 -69.00212 26979 ft 473 kts 347°
2026-04-22 03:47 14.09909 -69.00882 27196 ft 474 kts 347°
2026-04-22 03:47 14.13108 -69.01538 27404 ft 476 kts 347°
2026-04-22 03:47 14.16362 -69.02203 27612 ft 477 kts 347°
2026-04-22 03:47 14.19622 -69.02868 27859 ft 478 kts 347°
2026-04-22 03:48 14.22882 -69.03529 28162 ft 477 kts 347°
2026-04-22 03:48 14.26136 -69.04188 28470 ft 476 kts 347°
2026-04-22 03:48 14.29382 -69.04850 28767 ft 476 kts 347°
2026-04-22 03:48 14.32630 -69.05514 29063 ft 475 kts 347°
2026-04-22 03:49 14.35865 -69.06179 29431 ft 473 kts 347°
2026-04-22 03:49 14.39082 -69.06840 29785 ft 471 kts 347°
2026-04-22 03:49 14.42296 -69.07493 30103 ft 470 kts 347°
2026-04-22 03:49 14.45502 -69.08142 30365 ft 469 kts 347°
2026-04-22 03:50 14.48708 -69.08793 30612 ft 469 kts 346°
2026-04-22 03:50 14.51907 -69.09446 30847 ft 469 kts 346°
2026-04-22 03:50 14.55105 -69.10104 31091 ft 469 kts 346°
2026-04-22 03:50 14.58302 -69.10764 31333 ft 468 kts 346°
2026-04-22 03:51 14.61497 -69.11422 31569 ft 468 kts 346°
2026-04-22 03:51 14.64692 -69.12079 31807 ft 468 kts 346°
2026-04-22 03:51 14.67884 -69.12736 32073 ft 467 kts 346°
2026-04-22 03:51 14.71066 -69.13389 32351 ft 466 kts 346°
2026-04-22 03:52 14.74203 -69.14031 32593 ft 465 kts 346°
2026-04-22 03:52 14.77422 -69.14688 32831 ft 465 kts 346°
2026-04-22 03:52 14.80599 -69.15335 33063 ft 465 kts 346°
2026-04-22 03:52 14.83770 -69.15984 33289 ft 465 kts 346°
2026-04-22 03:53 14.86903 -69.16629 33510 ft 465 kts 346°
2026-04-22 03:53 14.90079 -69.17283 33724 ft 465 kts 346°
2026-04-22 03:53 14.93252 -69.17937 33939 ft 465 kts 346°
2026-04-22 03:53 14.96430 -69.18593 34033 ft 466 kts 346°
2026-04-22 03:54 15.02786 -69.19905 34045 ft 466 kts 345°
2026-04-22 03:54 15.09140 -69.21214 34034 ft 466 kts 345°
2026-04-22 03:55 15.15502 -69.22523 34034 ft 466 kts 345°
2026-04-22 03:55 15.21863 -69.23832 34035 ft 466 kts 345°
2026-04-22 03:56 15.28225 -69.25140 34039 ft 466 kts 345°
2026-04-22 03:56 15.34595 -69.26447 34053 ft 467 kts 345°
2026-04-22 03:57 15.40966 -69.27757 34052 ft 467 kts 345°
2026-04-22 03:57 15.47334 -69.29078 34051 ft 467 kts 345°
2026-04-22 03:58 15.53700 -69.30398 34058 ft 467 kts 345°
2026-04-22 03:58 15.60068 -69.31714 34063 ft 467 kts 345°
2026-04-22 03:59 15.65360 -69.32813 34057 ft 467 kts 345°
2026-04-22 03:59 15.72758 -69.34347 34069 ft 466 kts 345°
2026-04-22 04:00 15.79123 -69.35664 34061 ft 466 kts 345°
2026-04-22 04:00 15.84455 -69.36765 34068 ft 466 kts 345°
2026-04-22 04:01 15.90813 -69.38083 34064 ft 466 kts 345°
2026-04-22 04:01 15.97119 -69.39395 34057 ft 465 kts 345°
2026-04-22 04:02 16.03428 -69.40850 34068 ft 463 kts 341°
2026-04-22 04:02 16.09588 -69.42726 34073 ft 460 kts 338°
2026-04-22 04:03 16.15696 -69.44718 34071 ft 460 kts 339°
2026-04-22 04:03 16.21823 -69.46635 34072 ft 460 kts 339°
2026-04-22 04:04 16.27974 -69.48482 34060 ft 460 kts 340°
2026-04-22 04:04 16.34122 -69.50325 34063 ft 459 kts 340°
2026-04-22 04:05 16.40258 -69.52179 34067 ft 458 kts 339°
2026-04-22 04:05 16.46372 -69.54034 34079 ft 457 kts 339°
2026-04-22 04:06 16.52432 -69.55893 34065 ft 457 kts 339°
2026-04-22 04:06 16.58528 -69.57757 34067 ft 456 kts 339°
2026-04-22 04:07 16.64618 -69.59602 34061 ft 456 kts 339°
2026-04-22 04:07 16.70698 -69.61447 34072 ft 455 kts 339°
2026-04-22 04:08 16.76772 -69.63303 34068 ft 454 kts 339°
2026-04-22 04:08 16.82839 -69.65160 34064 ft 454 kts 339°
2026-04-22 04:09 16.88898 -69.67014 34065 ft 454 kts 339°
2026-04-22 04:09 16.94960 -69.68858 34066 ft 454 kts 339°
2026-04-22 04:10 17.01023 -69.70718 34068 ft 454 kts 339°
2026-04-22 04:10 17.07079 -69.72577 34067 ft 454 kts 339°
2026-04-22 04:11 17.13145 -69.74427 34064 ft 454 kts 339°
2026-04-22 04:11 17.19209 -69.76273 34068 ft 454 kts 339°
2026-04-22 04:12 17.25274 -69.78128 34067 ft 454 kts 339°
2026-04-22 04:12 17.31332 -69.79989 34068 ft 454 kts 339°
2026-04-22 04:13 17.37398 -69.81845 34085 ft 454 kts 339°
2026-04-22 04:13 17.43453 -69.83699 34083 ft 452 kts 339°
2026-04-22 04:14 17.49479 -69.85552 34080 ft 451 kts 339°
2026-04-22 04:14 17.55495 -69.87408 34073 ft 450 kts 339°
2026-04-22 04:15 17.61472 -69.89249 34073 ft 450 kts 339°
2026-04-22 04:15 17.67477 -69.91104 34071 ft 450 kts 339°
2026-04-22 04:16 17.76490 -69.93880 34079 ft 449 kts 339°
2026-04-22 04:17 17.82485 -69.95726 34079 ft 449 kts 339°
2026-04-22 04:17 17.88472 -69.97574 34077 ft 448 kts 339°
2026-04-22 04:18 17.94451 -69.99426 34080 ft 448 kts 339°
2026-04-22 04:18 18.00436 -70.01274 34078 ft 448 kts 339°
2026-04-22 04:19 18.06419 -70.03124 34089 ft 448 kts 339°
2026-04-22 04:19 18.12399 -70.04979 34087 ft 447 kts 339°
2026-04-22 04:20 18.18364 -70.06830 34087 ft 447 kts 339°
2026-04-22 04:20 18.24323 -70.08676 34085 ft 446 kts 339°
2026-04-22 04:21 18.30279 -70.10518 34083 ft 446 kts 339°
2026-04-22 04:21 18.36226 -70.12363 34087 ft 446 kts 339°
2026-04-22 04:22 18.42165 -70.14217 34097 ft 445 kts 339°
2026-04-22 04:22 18.48050 -70.16059 34099 ft 444 kts 338°
2026-04-22 04:23 18.53954 -70.17931 34093 ft 443 kts 338°
2026-04-22 04:23 18.59849 -70.19817 34095 ft 442 kts 338°
2026-04-22 04:24 18.65733 -70.21692 34093 ft 442 kts 338°
2026-04-22 04:24 18.71633 -70.23562 34110 ft 442 kts 338°
2026-04-22 04:25 18.77522 -70.25436 34111 ft 441 kts 338°
2026-04-22 04:25 18.83392 -70.27316 34108 ft 441 kts 338°
2026-04-22 04:26 18.89219 -70.29187 34098 ft 440 kts 338°
2026-04-22 04:26 18.95080 -70.31055 34093 ft 440 kts 338°
2026-04-22 04:27 19.00937 -70.32921 34084 ft 440 kts 338°
2026-04-22 04:27 19.06792 -70.34803 34107 ft 439 kts 338°
2026-04-22 04:28 19.12638 -70.36679 34090 ft 439 kts 338°
2026-04-22 04:28 19.18487 -70.38545 34091 ft 439 kts 338°
2026-04-22 04:29 19.24332 -70.40412 34093 ft 439 kts 338°
2026-04-22 04:29 19.30168 -70.42283 34091 ft 439 kts 338°
2026-04-22 04:30 19.36009 -70.44162 34095 ft 439 kts 338°
2026-04-22 04:30 19.41846 -70.46035 34113 ft 438 kts 339°
2026-04-22 04:31 19.47663 -70.47906 34109 ft 436 kts 339°
2026-04-22 04:31 19.53465 -70.49774 34102 ft 435 kts 339°
2026-04-22 04:32 19.59257 -70.51644 34091 ft 435 kts 339°
2026-04-22 04:32 19.65053 -70.53514 34088 ft 435 kts 339°
2026-04-22 04:33 19.70809 -70.55369 34070 ft 436 kts 339°
2026-04-22 04:33 19.76607 -70.57240 34084 ft 435 kts 338°
2026-04-22 04:34 19.82376 -70.59176 34082 ft 434 kts 338°
2026-04-22 04:34 19.88121 -70.61149 34079 ft 434 kts 338°
2026-04-22 04:35 19.93860 -70.63123 34086 ft 433 kts 338°
2026-04-22 04:35 19.99602 -70.65088 34086 ft 433 kts 338°
2026-04-22 04:36 20.05344 -70.67043 34099 ft 433 kts 337°
2026-04-22 04:36 20.11075 -70.69007 34097 ft 433 kts 337°
2026-04-22 04:37 20.16802 -70.70966 34092 ft 432 kts 337°
2026-04-22 04:37 20.22524 -70.72914 34085 ft 432 kts 337°
2026-04-22 04:38 20.28243 -70.74868 34082 ft 431 kts 337°
2026-04-22 04:38 20.33953 -70.76827 34082 ft 431 kts 337°
2026-04-22 04:39 20.39660 -70.78794 34083 ft 431 kts 336°
2026-04-22 04:39 20.44926 -70.81551 34084 ft 423 kts 325°
2026-04-22 04:40 20.49964 -70.84792 34082 ft 423 kts 325°
2026-04-22 04:40 20.55008 -70.88042 34080 ft 423 kts 325°
2026-04-22 04:41 20.60052 -70.91288 34077 ft 424 kts 324°
2026-04-22 04:41 20.65100 -70.94539 34076 ft 424 kts 324°
2026-04-22 04:42 20.70147 -70.97795 34074 ft 424 kts 324°
2026-04-22 04:42 20.75196 -71.01043 34090 ft 423 kts 324°
2026-04-22 04:43 20.80234 -71.04294 34091 ft 422 kts 324°
2026-04-22 04:43 20.85258 -71.07544 34088 ft 422 kts 324°
2026-04-22 04:44 20.90278 -71.10794 34091 ft 422 kts 324°
2026-04-22 04:44 20.95299 -71.14042 34089 ft 421 kts 324°
2026-04-22 04:45 21.00316 -71.17284 34085 ft 421 kts 324°
2026-04-22 04:45 21.05329 -71.20528 34086 ft 421 kts 324°
2026-04-22 04:46 21.10338 -71.23777 34097 ft 420 kts 324°
2026-04-22 04:46 21.15306 -71.26995 34091 ft 420 kts 324°
2026-04-22 04:47 21.20293 -71.30235 34090 ft 419 kts 324°
2026-04-22 04:47 21.25280 -71.33478 34092 ft 419 kts 324°
2026-04-22 04:48 21.30262 -71.36722 34093 ft 419 kts 324°
2026-04-22 04:48 21.35244 -71.39969 34092 ft 419 kts 324°
2026-04-22 04:49 21.40224 -71.43211 34110 ft 419 kts 324°
2026-04-22 04:49 21.45201 -71.46460 34099 ft 418 kts 324°
2026-04-22 04:50 21.50169 -71.49706 34105 ft 418 kts 324°
2026-04-22 04:50 21.55133 -71.52952 34099 ft 418 kts 324°
2026-04-22 04:51 21.59260 -71.55649 34097 ft 418 kts 324°
2026-04-22 04:51 21.64214 -71.58883 34083 ft 413 kts 320°
2026-04-22 04:52 21.69113 -71.62085 34067 ft 412 kts 320°
2026-04-22 04:52 21.74010 -71.65294 34098 ft 413 kts 320°
2026-04-22 04:53 21.78911 -71.68506 34101 ft 412 kts 320°
2026-04-22 04:53 21.83806 -71.71722 34101 ft 412 kts 320°
2026-04-22 04:54 21.88695 -71.74937 34101 ft 412 kts 320°
2026-04-22 04:54 21.93586 -71.78151 34099 ft 412 kts 320°
2026-04-22 04:55 21.98472 -71.81363 34099 ft 411 kts 320°
2026-04-22 04:55 22.03325 -71.84559 34101 ft 411 kts 320°
2026-04-22 04:56 22.08207 -71.87779 34134 ft 411 kts 319°
2026-04-22 04:56 22.13063 -71.90976 34102 ft 408 kts 320°
2026-04-22 04:57 22.17911 -71.94174 34099 ft 408 kts 319°
2026-04-22 04:57 22.22754 -71.97380 34104 ft 409 kts 319°
2026-04-22 04:58 22.27602 -72.00591 34105 ft 409 kts 319°
2026-04-22 04:58 22.32455 -72.03800 34106 ft 409 kts 319°
2026-04-22 04:59 22.37302 -72.07007 34109 ft 409 kts 320°
2026-04-22 04:59 22.42157 -72.10217 34130 ft 409 kts 320°
2026-04-22 05:00 22.46982 -72.13427 34116 ft 407 kts 319°
2026-04-22 05:00 22.51797 -72.16646 34119 ft 407 kts 319°
2026-04-22 05:01 22.56616 -72.19854 34118 ft 407 kts 320°
2026-04-22 05:01 22.61446 -72.23058 34118 ft 407 kts 320°
2026-04-22 05:02 22.66274 -72.26263 34116 ft 407 kts 320°
2026-04-22 05:02 22.71066 -72.29452 34114 ft 407 kts 319°
2026-04-22 05:03 22.75881 -72.32669 34142 ft 407 kts 320°
2026-04-22 05:03 22.80691 -72.35884 34133 ft 406 kts 320°
2026-04-22 05:04 22.85500 -72.39091 34125 ft 406 kts 320°
2026-04-22 05:04 22.90309 -72.42301 34121 ft 406 kts 320°
2026-04-22 05:05 22.95115 -72.45516 34120 ft 406 kts 320°
2026-04-22 05:05 22.99919 -72.48735 34118 ft 406 kts 319°
2026-04-22 05:06 23.04726 -72.51955 34119 ft 406 kts 320°
2026-04-22 05:06 23.09526 -72.55179 34146 ft 406 kts 320°
2026-04-22 05:07 23.14327 -72.58398 34136 ft 405 kts 320°
2026-04-22 05:07 23.19123 -72.61619 34131 ft 405 kts 320°
2026-04-22 05:08 23.23905 -72.64842 34125 ft 404 kts 320°
2026-04-22 05:08 23.28689 -72.68060 34123 ft 404 kts 320°
2026-04-22 05:09 23.33476 -72.71277 34118 ft 404 kts 320°
2026-04-22 05:09 23.38259 -72.74496 34113 ft 404 kts 320°
2026-04-22 05:10 23.43010 -72.77699 34153 ft 404 kts 320°
2026-04-22 05:10 23.47789 -72.80931 34144 ft 404 kts 320°
2026-04-22 05:11 23.52575 -72.84163 34136 ft 405 kts 320°
2026-04-22 05:11 23.57356 -72.87398 34130 ft 405 kts 320°
2026-04-22 05:12 23.62142 -72.90637 34129 ft 405 kts 320°
2026-04-22 05:12 23.66927 -72.93884 34132 ft 405 kts 320°
2026-04-22 05:13 23.71714 -72.97130 34129 ft 405 kts 320°
2026-04-22 05:13 23.76500 -73.00378 34135 ft 405 kts 320°
2026-04-22 05:14 23.81283 -73.03623 34134 ft 405 kts 320°
2026-04-22 05:14 23.86064 -73.06881 34138 ft 405 kts 320°
2026-04-22 05:15 23.90813 -73.10116 34139 ft 405 kts 320°
2026-04-22 05:15 23.95597 -73.13370 34140 ft 405 kts 320°
2026-04-22 05:16 24.00382 -73.16625 34140 ft 405 kts 320°
2026-04-22 05:16 24.05164 -73.19892 34147 ft 405 kts 320°
2026-04-22 05:17 24.09952 -73.23161 34184 ft 405 kts 321°
2026-04-22 05:17 24.14731 -73.26424 34182 ft 405 kts 321°
2026-04-22 05:18 24.21908 -73.31335 34189 ft 406 kts 321°
2026-04-22 05:18 24.26696 -73.34616 34191 ft 406 kts 321°
2026-04-22 05:19 24.31480 -73.37900 34190 ft 406 kts 321°
2026-04-22 05:19 24.36268 -73.41186 34193 ft 406 kts 321°
2026-04-22 05:20 24.41056 -73.44478 34226 ft 406 kts 321°
2026-04-22 05:20 24.45821 -73.47751 34214 ft 407 kts 321°
2026-04-22 05:21 24.50626 -73.51051 34210 ft 408 kts 321°
2026-04-22 05:21 24.55427 -73.54361 34207 ft 408 kts 321°
2026-04-22 05:22 24.60337 -73.57518 34204 ft 411 kts 324°
2026-04-22 05:22 24.65437 -73.60394 34205 ft 413 kts 326°
2026-04-22 05:23 24.70563 -73.63242 34204 ft 412 kts 325°
2026-04-22 05:23 24.75645 -73.66155 34232 ft 412 kts 325°
2026-04-22 05:24 24.80713 -73.69109 34221 ft 412 kts 325°
2026-04-22 05:24 24.85785 -73.72064 34214 ft 413 kts 325°
2026-04-22 05:25 24.90864 -73.75019 34210 ft 413 kts 325°
2026-04-22 05:25 24.95952 -73.77972 34210 ft 413 kts 325°
2026-04-22 05:26 25.01035 -73.80922 34210 ft 413 kts 325°
2026-04-22 05:26 25.06123 -73.83881 34237 ft 413 kts 326°
2026-04-22 05:27 25.11206 -73.86847 34224 ft 414 kts 326°
2026-04-22 05:27 25.16297 -73.89810 34222 ft 414 kts 326°
2026-04-22 05:28 25.21387 -73.92781 34218 ft 414 kts 326°
2026-04-22 05:28 25.26468 -73.95756 34218 ft 414 kts 326°
2026-04-22 05:29 25.31527 -73.98720 34216 ft 414 kts 326°
2026-04-22 05:29 25.36616 -74.01698 34209 ft 414 kts 326°
2026-04-22 05:30 25.41715 -74.04682 34223 ft 415 kts 326°
2026-04-22 05:30 25.46824 -74.07672 34211 ft 416 kts 326°
2026-04-22 05:31 25.51939 -74.10674 34213 ft 416 kts 326°
2026-04-22 05:31 25.57050 -74.13687 34216 ft 416 kts 326°
2026-04-22 05:32 25.62171 -74.16701 34222 ft 417 kts 326°
2026-04-22 05:32 25.67294 -74.19708 34224 ft 417 kts 326°
2026-04-22 05:33 25.72432 -74.22702 34239 ft 417 kts 327°
2026-04-22 05:33 25.77582 -74.25695 34245 ft 418 kts 327°
2026-04-22 05:34 25.82688 -74.28681 34244 ft 418 kts 327°
2026-04-22 05:34 25.87830 -74.31695 34234 ft 418 kts 327°
2026-04-22 05:35 25.92968 -74.34707 34236 ft 418 kts 327°
2026-04-22 05:35 25.98114 -74.37724 34232 ft 418 kts 327°
2026-04-22 05:36 26.03268 -74.40740 34255 ft 419 kts 328°
2026-04-22 05:36 26.08426 -74.43762 34254 ft 419 kts 328°
2026-04-22 05:37 26.13580 -74.46795 34251 ft 419 kts 327°
2026-04-22 05:37 26.18733 -74.49835 34248 ft 419 kts 328°
2026-04-22 05:38 26.23885 -74.52872 34251 ft 419 kts 328°
2026-04-22 05:38 26.29039 -74.55919 34256 ft 419 kts 327°
2026-04-22 05:39 26.34187 -74.58966 34274 ft 419 kts 328°
2026-04-22 05:39 26.39340 -74.61999 34270 ft 418 kts 328°
2026-04-22 05:40 26.44481 -74.65038 34264 ft 418 kts 328°
2026-04-22 05:40 26.49615 -74.68082 34260 ft 418 kts 328°
2026-04-22 05:41 26.54746 -74.71123 34259 ft 417 kts 328°
2026-04-22 05:41 26.59875 -74.74170 34253 ft 417 kts 328°
2026-04-22 05:42 26.64968 -74.77192 34279 ft 417 kts 328°
2026-04-22 05:42 26.70113 -74.80197 34274 ft 417 kts 329°
2026-04-22 05:43 26.75270 -74.83174 34269 ft 417 kts 329°
2026-04-22 05:43 26.79554 -74.85651 34273 ft 417 kts 329°
2026-04-22 05:44 26.84695 -74.88643 34269 ft 416 kts 329°
2026-04-22 05:44 26.89830 -74.91647 34266 ft 416 kts 329°
2026-04-22 05:45 26.94967 -74.94648 34265 ft 417 kts 329°
2026-04-22 05:45 27.00106 -74.97652 34269 ft 417 kts 329°
2026-04-22 05:46 27.05246 -75.00661 34277 ft 417 kts 329°
2026-04-22 05:46 27.10387 -75.03673 34274 ft 417 kts 329°
2026-04-22 05:47 27.15527 -75.06681 34271 ft 416 kts 329°
2026-04-22 05:47 27.20665 -75.09697 34267 ft 417 kts 329°
2026-04-22 05:48 27.25800 -75.12710 34269 ft 417 kts 329°
2026-04-22 05:48 27.30930 -75.15721 34274 ft 414 kts 324°
2026-04-22 05:49 27.36024 -75.18718 34299 ft 412 kts 324°
2026-04-22 05:49 27.41091 -75.21707 34292 ft 410 kts 324°
2026-04-22 05:50 27.46135 -75.24687 34290 ft 409 kts 324°
2026-04-22 05:50 27.51164 -75.27665 34288 ft 408 kts 324°
2026-04-22 05:51 27.56217 -75.30579 34283 ft 412 kts 329°
2026-04-22 05:51 27.61588 -75.32917 34289 ft 413 kts 330°
2026-04-22 05:52 27.66951 -75.35237 34289 ft 413 kts 330°
2026-04-22 05:52 27.72279 -75.37543 34288 ft 413 kts 330°
2026-04-22 05:53 27.77644 -75.39871 34290 ft 413 kts 330°
2026-04-22 05:53 27.83013 -75.42208 34290 ft 413 kts 330°
2026-04-22 05:54 27.88378 -75.44535 34290 ft 413 kts 330°
2026-04-22 05:54 27.93696 -75.46817 34281 ft 405 kts 330°
2026-04-22 05:55 27.98953 -75.49085 34279 ft 404 kts 330°
2026-04-22 05:55 28.04199 -75.51364 34280 ft 404 kts 330°
2026-04-22 05:56 28.09453 -75.53635 34279 ft 404 kts 330°
2026-04-22 05:56 28.14700 -75.55909 34282 ft 404 kts 330°
2026-04-22 05:57 28.19917 -75.58175 34298 ft 404 kts 330°
2026-04-22 05:57 28.25217 -75.60482 34267 ft 406 kts 330°
2026-04-22 05:58 28.30506 -75.62788 34261 ft 408 kts 330°
2026-04-22 05:58 28.35815 -75.65105 34263 ft 409 kts 330°
2026-04-22 05:59 28.41138 -75.67426 34264 ft 410 kts 330°
2026-04-22 05:59 28.46466 -75.69757 34268 ft 410 kts 329°
2026-04-22 06:00 28.51760 -75.72067 34294 ft 411 kts 329°
2026-04-22 06:00 28.57137 -75.74415 34284 ft 412 kts 329°
2026-04-22 06:01 28.62454 -75.76744 34277 ft 412 kts 329°
2026-04-22 06:01 28.67806 -75.79095 34271 ft 413 kts 329°
2026-04-22 06:02 28.73167 -75.81447 34281 ft 413 kts 329°
2026-04-22 06:02 28.78529 -75.83803 34285 ft 413 kts 329°
2026-04-22 06:03 28.83865 -75.86139 34287 ft 408 kts 327°
2026-04-22 06:03 28.89155 -75.88469 34290 ft 407 kts 327°
2026-04-22 06:04 28.94444 -75.90810 34288 ft 408 kts 327°
2026-04-22 06:04 28.99728 -75.93151 34290 ft 408 kts 327°
2026-04-22 06:05 29.05017 -75.95488 34290 ft 408 kts 327°
2026-04-22 06:05 29.10308 -75.97812 34302 ft 405 kts 327°
2026-04-22 06:06 29.15509 -76.00112 34278 ft 399 kts 327°
2026-04-22 06:06 29.20683 -76.02419 34279 ft 399 kts 327°
2026-04-22 06:07 29.25866 -76.04727 34287 ft 400 kts 327°
2026-04-22 06:07 29.31026 -76.07017 34287 ft 400 kts 327°
2026-04-22 06:08 29.36219 -76.09327 34285 ft 400 kts 327°
2026-04-22 06:08 29.41422 -76.11640 34302 ft 402 kts 328°
2026-04-22 06:09 29.46636 -76.13964 34294 ft 403 kts 328°
2026-04-22 06:09 29.51866 -76.16295 34281 ft 404 kts 328°
2026-04-22 06:10 29.57104 -76.18636 34282 ft 404 kts 328°
2026-04-22 06:10 29.62350 -76.20987 34284 ft 405 kts 328°
2026-04-22 06:11 29.67601 -76.23336 34342 ft 405 kts 328°
2026-04-22 06:11 29.72859 -76.25689 34294 ft 405 kts 328°
2026-04-22 06:12 29.78117 -76.28047 34280 ft 406 kts 328°
2026-04-22 06:12 29.83382 -76.30420 34279 ft 406 kts 328°
2026-04-22 06:13 29.88652 -76.32794 34289 ft 407 kts 328°
2026-04-22 06:13 29.93925 -76.35167 34293 ft 407 kts 328°
2026-04-22 06:14 29.99201 -76.37543 34289 ft 407 kts 328°
2026-04-22 06:14 30.04438 -76.39908 34292 ft 407 kts 328°
2026-04-22 06:15 30.09710 -76.42291 34298 ft 407 kts 328°
2026-04-22 06:15 30.14982 -76.44675 34287 ft 407 kts 328°
2026-04-22 06:16 30.20255 -76.47061 34280 ft 407 kts 328°
2026-04-22 06:16 30.25523 -76.49451 34320 ft 407 kts 328°
2026-04-22 06:17 30.30762 -76.51828 34291 ft 403 kts 328°
2026-04-22 06:17 30.35966 -76.54190 34290 ft 401 kts 328°
2026-04-22 06:18 30.41151 -76.56549 34292 ft 400 kts 328°
2026-04-22 06:18 30.46325 -76.58909 34287 ft 399 kts 328°
2026-04-22 06:19 30.51491 -76.61270 34284 ft 399 kts 328°
2026-04-22 06:19 30.56655 -76.63627 34297 ft 398 kts 328°
2026-04-22 06:20 30.61776 -76.65955 34279 ft 394 kts 328°
2026-04-22 06:20 30.66869 -76.68298 34276 ft 394 kts 328°
2026-04-22 06:21 30.71964 -76.70642 34278 ft 394 kts 328°
2026-04-22 06:21 30.77068 -76.72975 34279 ft 394 kts 328°
2026-04-22 06:22 30.82168 -76.75309 34276 ft 394 kts 328°
2026-04-22 06:22 30.87222 -76.77636 34286 ft 391 kts 328°
2026-04-22 06:23 30.92269 -76.79954 34274 ft 390 kts 328°
2026-04-22 06:23 30.97313 -76.82285 34274 ft 390 kts 328°
2026-04-22 06:24 31.04890 -76.85780 34272 ft 391 kts 328°
2026-04-22 06:25 31.09949 -76.88107 34278 ft 391 kts 328°
2026-04-22 06:25 31.15003 -76.90446 34321 ft 391 kts 329°
2026-04-22 06:26 31.20058 -76.92792 34310 ft 391 kts 329°
2026-04-22 06:26 31.25117 -76.95135 34303 ft 391 kts 329°
2026-04-22 06:27 31.30172 -76.97484 34284 ft 391 kts 329°
2026-04-22 06:27 31.35139 -76.99997 34295 ft 382 kts 321°
2026-04-22 06:28 31.39210 -77.03791 34289 ft 372 kts 311°
2026-04-22 06:28 31.43072 -77.07847 34300 ft 374 kts 313°
2026-04-22 06:29 31.46928 -77.11884 34279 ft 375 kts 313°
2026-04-22 06:29 31.50825 -77.15958 34267 ft 376 kts 313°
2026-04-22 06:30 31.54727 -77.20048 34266 ft 376 kts 313°
2026-04-22 06:30 31.58631 -77.24144 34259 ft 377 kts 313°
2026-04-22 06:31 31.62541 -77.28248 34263 ft 377 kts 313°
2026-04-22 06:31 31.66449 -77.32355 34271 ft 377 kts 313°
2026-04-22 06:32 31.70359 -77.36473 34284 ft 377 kts 313°
2026-04-22 06:32 31.74272 -77.40590 34299 ft 377 kts 313°
2026-04-22 06:33 31.78175 -77.44706 34295 ft 377 kts 313°
2026-04-22 06:33 31.82074 -77.48834 34286 ft 377 kts 313°
2026-04-22 06:34 31.85310 -77.52268 34291 ft 377 kts 313°
2026-04-22 06:34 31.89839 -77.57076 34287 ft 377 kts 313°
2026-04-22 06:35 31.93104 -77.60537 34265 ft 377 kts 314°
2026-04-22 06:35 31.96999 -77.64661 34283 ft 376 kts 314°
2026-04-22 06:36 32.01515 -77.69463 34276 ft 376 kts 314°
2026-04-22 06:36 32.04759 -77.72916 34274 ft 374 kts 314°
2026-04-22 06:37 32.08608 -77.77027 34266 ft 373 kts 314°
2026-04-22 06:37 32.12457 -77.81146 34264 ft 374 kts 314°
2026-04-22 06:38 32.16293 -77.85244 34261 ft 374 kts 314°
2026-04-22 06:38 32.19514 -77.89976 34262 ft 370 kts 297°
2026-04-22 06:39 32.21454 -77.95602 34264 ft 371 kts 292°
2026-04-22 06:39 32.23328 -78.01270 34257 ft 370 kts 292°
2026-04-22 06:40 32.25205 -78.06936 34262 ft 370 kts 293°
2026-04-22 06:40 32.27083 -78.12601 34270 ft 370 kts 293°
2026-04-22 06:41 32.28953 -78.18266 34268 ft 370 kts 292°
2026-04-22 06:41 32.30813 -78.23937 34268 ft 370 kts 292°
2026-04-22 06:42 32.32660 -78.29612 34274 ft 370 kts 292°
2026-04-22 06:42 32.34510 -78.35286 34269 ft 370 kts 292°
2026-04-22 06:43 32.36364 -78.40962 34292 ft 370 kts 292°
2026-04-22 06:43 32.38218 -78.46636 34286 ft 370 kts 292°
2026-04-22 06:44 32.40060 -78.52281 34283 ft 370 kts 292°
2026-04-22 06:44 32.41913 -78.57964 34277 ft 370 kts 292°
2026-04-22 06:45 32.43775 -78.63631 34276 ft 370 kts 292°
2026-04-22 06:45 32.45629 -78.69320 34241 ft 370 kts 293°
2026-04-22 06:46 32.47467 -78.75001 34253 ft 370 kts 293°
2026-04-22 06:46 32.49302 -78.80688 34255 ft 369 kts 292°
2026-04-22 06:47 32.51137 -78.86372 34259 ft 369 kts 293°
2026-04-22 06:47 32.52972 -78.92056 34263 ft 369 kts 292°
2026-04-22 06:48 32.54800 -78.97744 34266 ft 369 kts 292°
2026-04-22 06:48 32.56624 -79.03436 34268 ft 369 kts 292°
2026-04-22 06:49 32.58443 -79.09129 34239 ft 369 kts 293°
2026-04-22 06:49 32.60264 -79.14824 34251 ft 369 kts 293°
2026-04-22 06:50 32.62085 -79.20525 34257 ft 369 kts 293°
2026-04-22 06:50 32.63899 -79.26224 34262 ft 369 kts 292°
2026-04-22 06:51 32.65705 -79.31930 34267 ft 369 kts 292°
2026-04-22 06:51 32.67515 -79.37637 34279 ft 370 kts 292°
2026-04-22 06:52 32.69325 -79.43348 34256 ft 370 kts 292°
2026-04-22 06:52 32.71128 -79.49069 34255 ft 370 kts 292°
2026-04-22 06:53 32.73463 -79.54450 34283 ft 368 kts 309°
2026-04-22 06:53 32.75284 -79.56532 34278 ft 371 kts 320°
2026-04-22 06:53 32.77509 -79.58116 34279 ft 378 kts 331°
2026-04-22 06:54 32.82651 -79.59798 34274 ft 386 kts 340°
2026-04-22 06:54 32.87890 -79.61251 34273 ft 387 kts 339°
2026-04-22 06:55 32.93136 -79.62725 34273 ft 387 kts 339°
2026-04-22 06:55 32.98379 -79.64205 34281 ft 388 kts 339°
2026-04-22 06:56 33.03632 -79.65676 34284 ft 388 kts 339°
2026-04-22 06:56 33.08884 -79.67153 34289 ft 388 kts 339°
2026-04-22 06:57 33.14135 -79.68634 34291 ft 388 kts 339°
2026-04-22 06:57 33.19388 -79.70126 34296 ft 388 kts 339°
2026-04-22 06:58 33.24636 -79.71613 34283 ft 388 kts 339°
2026-04-22 06:58 33.27266 -79.72361 33764 ft 390 kts 339°
2026-04-22 06:58 33.29955 -79.73131 33497 ft 405 kts 339°
2026-04-22 06:58 33.32738 -79.73933 33252 ft 416 kts 340°
2026-04-22 06:59 33.35572 -79.74745 32980 ft 421 kts 340°
2026-04-22 06:59 33.38425 -79.75555 32717 ft 423 kts 340°
2026-04-22 06:59 33.41295 -79.76363 32461 ft 424 kts 340°
2026-04-22 06:59 33.44171 -79.77170 32209 ft 425 kts 340°
2026-04-22 07:00 33.47012 -79.77975 31960 ft 425 kts 340°
2026-04-22 07:00 33.49895 -79.78797 31705 ft 426 kts 340°
2026-04-22 07:00 33.52782 -79.79617 31469 ft 427 kts 340°
2026-04-22 07:00 33.55678 -79.80439 31240 ft 429 kts 340°
2026-04-22 07:01 33.58581 -79.81267 30997 ft 429 kts 340°
2026-04-22 07:01 33.61436 -79.82264 30760 ft 426 kts 335°
2026-04-22 07:01 33.64247 -79.83425 30522 ft 427 kts 335°
2026-04-22 07:01 33.67057 -79.84582 30230 ft 428 kts 336°
2026-04-22 07:02 33.69887 -79.85750 29095 ft 434 kts 336°
2026-04-22 07:02 33.72761 -79.86940 28236 ft 436 kts 336°
2026-04-22 07:02 33.75610 -79.88109 27662 ft 430 kts 336°
2026-04-22 07:02 33.78406 -79.89252 27429 ft 417 kts 336°
2026-04-22 07:03 33.81106 -79.90349 27268 ft 404 kts 336°
2026-04-22 07:03 33.83736 -79.91423 26871 ft 397 kts 336°
2026-04-22 07:03 33.86336 -79.92497 26317 ft 394 kts 336°
2026-04-22 07:03 33.88921 -79.93574 25775 ft 392 kts 336°
2026-04-22 07:04 33.91491 -79.94647 25221 ft 390 kts 336°
2026-04-22 07:04 33.94056 -79.95714 24673 ft 390 kts 336°
2026-04-22 07:04 33.96616 -79.96777 24156 ft 389 kts 337°
2026-04-22 07:04 33.99164 -79.97833 23569 ft 388 kts 337°
2026-04-22 07:05 34.01633 -79.99064 23167 ft 379 kts 330°
2026-04-22 07:05 34.03983 -80.00445 22916 ft 374 kts 330°
2026-04-22 07:05 34.06314 -80.01815 22661 ft 372 kts 330°
2026-04-22 07:05 34.08638 -80.03185 22402 ft 370 kts 330°
2026-04-22 07:06 34.10943 -80.04547 22139 ft 368 kts 330°
2026-04-22 07:06 34.13242 -80.05907 21880 ft 367 kts 330°
2026-04-22 07:06 34.15528 -80.07260 21623 ft 366 kts 330°
2026-04-22 07:06 34.17811 -80.08607 21360 ft 364 kts 330°
2026-04-22 07:07 34.20084 -80.09945 21111 ft 363 kts 330°
2026-04-22 07:07 34.22351 -80.11279 20869 ft 362 kts 331°
2026-04-22 07:07 34.24581 -80.12592 20622 ft 361 kts 331°
2026-04-22 07:07 34.26829 -80.13917 20369 ft 359 kts 331°
2026-04-22 07:08 34.29073 -80.15243 20129 ft 358 kts 331°
2026-04-22 07:08 34.31308 -80.16568 19886 ft 357 kts 331°
2026-04-22 07:08 34.33545 -80.17894 19644 ft 358 kts 331°
2026-04-22 07:08 34.35779 -80.19223 19411 ft 358 kts 331°
2026-04-22 07:09 34.38008 -80.20550 19175 ft 357 kts 331°
2026-04-22 07:09 34.40233 -80.21875 18943 ft 356 kts 331°
2026-04-22 07:09 34.42450 -80.23199 18710 ft 355 kts 331°
2026-04-22 07:09 34.44659 -80.24518 18465 ft 354 kts 331°
2026-04-22 07:10 34.46850 -80.25819 18220 ft 346 kts 331°
2026-04-22 07:10 34.48991 -80.27089 17947 ft 340 kts 331°
2026-04-22 07:10 34.51113 -80.28346 17670 ft 338 kts 331°
2026-04-22 07:10 34.53221 -80.29597 17435 ft 337 kts 331°
2026-04-22 07:11 34.55318 -80.30846 17167 ft 336 kts 331°
2026-04-22 07:11 34.57412 -80.32097 16911 ft 335 kts 331°
2026-04-22 07:11 34.59495 -80.33347 16657 ft 333 kts 330°
2026-04-22 07:11 34.61435 -80.34852 16411 ft 330 kts 320°
2026-04-22 07:12 34.63225 -80.36580 16162 ft 328 kts 320°
2026-04-22 07:12 34.65012 -80.38306 15909 ft 327 kts 320°
2026-04-22 07:12 34.66792 -80.40021 15673 ft 327 kts 320°
2026-04-22 07:12 34.68572 -80.41730 15432 ft 326 kts 320°
2026-04-22 07:13 34.70348 -80.43436 15184 ft 325 kts 320°
2026-04-22 07:13 34.72118 -80.45134 14940 ft 324 kts 320°
2026-04-22 07:13 34.73875 -80.46840 14697 ft 323 kts 320°
2026-04-22 07:13 34.75623 -80.48554 14452 ft 322 kts 320°
2026-04-22 07:14 34.77360 -80.50266 14169 ft 322 kts 320°
2026-04-22 07:14 34.79096 -80.51982 13672 ft 321 kts 320°
2026-04-22 07:14 34.80800 -80.53668 13202 ft 319 kts 320°
2026-04-22 07:14 34.82512 -80.55359 13050 ft 307 kts 320°
2026-04-22 07:15 34.84123 -80.56948 12841 ft 298 kts 320°
2026-04-22 07:15 34.85716 -80.58529 12560 ft 294 kts 320°
2026-04-22 07:15 34.87278 -80.60115 12302 ft 292 kts 319°
2026-04-22 07:15 34.88826 -80.61703 12058 ft 290 kts 319°
2026-04-22 07:16 34.90358 -80.63278 11848 ft 287 kts 319°
2026-04-22 07:16 34.91883 -80.64846 11601 ft 286 kts 319°
2026-04-22 07:16 34.93402 -80.66402 11350 ft 285 kts 319°
2026-04-22 07:16 34.94917 -80.67955 11111 ft 284 kts 319°
2026-04-22 07:17 34.96427 -80.69502 10868 ft 283 kts 319°
2026-04-22 07:17 34.97930 -80.71042 10621 ft 282 kts 320°
2026-04-22 07:17 34.99430 -80.72578 10388 ft 281 kts 320°
2026-04-22 07:17 35.00926 -80.74108 10144 ft 280 kts 320°
2026-04-22 07:18 35.02411 -80.75634 9922 ft 277 kts 319°
2026-04-22 07:18 35.03873 -80.77174 10014 ft 280 kts 319°
2026-04-22 07:18 35.05340 -80.78739 10014 ft 280 kts 318°
2026-04-22 07:18 35.06803 -80.80301 10012 ft 280 kts 320°
2026-04-22 07:19 35.08432 -80.81551 10008 ft 271 kts 336°
2026-04-22 07:19 35.10195 -80.82163 10008 ft 258 kts 351°
2026-04-22 07:19 35.11938 -80.82321 10018 ft 246 kts 354°
2026-04-22 07:19 35.13641 -80.82461 10023 ft 245 kts 354°
2026-04-22 07:20 35.15338 -80.82610 9975 ft 246 kts 354°
2026-04-22 07:20 35.17039 -80.82759 9723 ft 243 kts 353°
2026-04-22 07:20 35.18699 -80.82903 9539 ft 242 kts 353°
2026-04-22 07:20 35.20377 -80.83047 9360 ft 242 kts 353°
2026-04-22 07:21 35.22052 -80.83190 9182 ft 241 kts 353°
2026-04-22 07:21 35.23721 -80.83331 9009 ft 240 kts 353°
2026-04-22 07:21 35.25386 -80.83470 8823 ft 240 kts 353°
2026-04-22 07:21 35.27048 -80.83609 8654 ft 239 kts 353°
2026-04-22 07:22 35.28705 -80.83747 8484 ft 239 kts 353°
2026-04-22 07:22 35.30359 -80.83883 8305 ft 238 kts 353°
2026-04-22 07:22 35.32008 -80.84017 8142 ft 237 kts 353°
2026-04-22 07:22 35.33654 -80.84146 7979 ft 237 kts 353°
2026-04-22 07:23 35.35298 -80.84274 7790 ft 236 kts 353°
2026-04-22 07:23 35.36938 -80.84399 7620 ft 236 kts 353°
2026-04-22 07:23 35.38572 -80.84522 7452 ft 235 kts 353°
2026-04-22 07:23 35.40202 -80.84642 7279 ft 235 kts 353°
2026-04-22 07:24 35.41828 -80.84754 7117 ft 233 kts 353°
2026-04-22 07:24 35.43444 -80.84847 6950 ft 232 kts 353°
2026-04-22 07:24 35.44510 -80.84906 6839 ft 231 kts 353°
2026-04-22 07:24 35.46642 -80.85090 6610 ft 227 kts 341°
2026-04-22 07:25 35.47598 -80.85549 6513 ft 220 kts 324°
2026-04-22 07:25 35.48659 -80.86766 6468 ft 204 kts 302°
2026-04-22 07:25 35.49190 -80.88345 6418 ft 201 kts 280°
2026-04-22 07:25 35.49325 -80.90055 6381 ft 201 kts 276°
2026-04-22 07:26 35.49270 -80.91785 6011 ft 208 kts 260°
2026-04-22 07:26 35.48705 -80.93413 5749 ft 208 kts 240°
2026-04-22 07:26 35.47695 -80.94690 5592 ft 212 kts 220°
2026-04-22 07:26 35.46344 -80.95455 5392 ft 219 kts 198°
2026-04-22 07:27 35.44807 -80.95551 5136 ft 224 kts 181°
2026-04-22 07:27 35.43257 -80.95412 4845 ft 223 kts 180°
2026-04-22 07:27 35.41717 -80.95273 4577 ft 221 kts 181°
2026-04-22 07:27 35.40194 -80.95140 4285 ft 217 kts 181°
2026-04-22 07:28 35.37234 -80.94884 3736 ft 207 kts 182°
2026-04-22 07:28 35.35871 -80.94763 3494 ft 185 kts 183°
2026-04-22 07:28 35.34691 -80.94657 3245 ft 158 kts 185°
2026-04-22 07:29 35.33634 -80.94568 3028 ft 147 kts 185°
2026-04-22 07:29 35.32629 -80.94484 2847 ft 143 kts 186°
2026-04-22 07:29 35.31645 -80.94402 2654 ft 141 kts 186°
2026-04-22 07:29 35.30674 -80.94319 2481 ft 139 kts 186°
2026-04-22 07:30 35.29718 -80.94238 2296 ft 137 kts 185°
2026-04-22 07:30 35.28772 -80.94157 2130 ft 136 kts 187°
2026-04-22 07:30 35.27829 -80.94076 1934 ft 136 kts 185°
2026-04-22 07:30 35.26884 -80.93988 1668 ft 137 kts 181°
2026-04-22 07:31 35.25926 -80.93908 1429 ft 139 kts 179°
2026-04-22 07:31 35.24954 -80.93827 1250 ft 140 kts 178°
2026-04-22 07:31 35.23969 -80.93738 1069 ft 142 kts 176°
2026-04-22 07:31 35.22982 -80.93659 902 ft 143 kts 175°
2026-04-22 07:32 35.21996 -80.93577 740 ft 134 kts 174°
2026-04-22 07:32 35.21201 -80.93509 735 ft 91 kts 176°
2026-04-22 07:32 35.20745 -80.93468 736 ft 42 kts 175°
2026-04-22 07:32 35.20542 -80.93496 735 ft 22 kts 203°
2026-04-22 07:33 35.20509 -80.93586 732 ft 5 kts 345°
2026-04-22 07:33 35.20557 -80.93589 733 ft 10 kts 357°
2026-04-22 07:33 35.20644 -80.93596 733 ft 16 kts 356°
2026-04-22 07:33 35.20769 -80.93605 731 ft 20 kts 357°
2026-04-22 07:34 35.20915 -80.93618 733 ft 21 kts 356°
2026-04-22 07:34 35.21049 -80.93630 733 ft 14 kts 356°
2026-04-22 07:34 35.21154 -80.93639 733 ft 16 kts 356°
2026-04-22 07:34 35.21270 -80.93649 733 ft 17 kts 356°
2026-04-22 07:35 35.21379 -80.93658 733 ft 15 kts 356°
2026-04-22 07:35 35.21489 -80.93667 733 ft 16 kts 356°
2026-04-22 07:35 35.21583 -80.93704 733 ft 15 kts 313°
2026-04-22 07:35 35.21653 -80.93805 733 ft 16 kts 309°
2026-04-22 07:36 35.21734 -80.93910 732 ft 18 kts 320°
2026-04-22 07:36 35.21817 -80.93926 732 ft 12 kts 42°
2026-04-22 07:36 35.21889 -80.93925 732 ft 10 kts 343°
2026-04-22 07:36 35.21941 -80.93883 731 ft 10 kts 44°
2026-04-22 07:37 35.21991 -80.93818 732 ft 11 kts 38°
2026-04-22 07:37 35.22071 -80.93803 732 ft 13 kts 353°
2026-04-22 07:37 35.22127 -80.93852 732 ft 9 kts 249°
2026-04-22 07:37 35.22067 -80.93853 732 ft 10 kts 167°
2026-04-22 07:38 35.22013 -80.93864 732 ft 0 kts 237°
2026-04-22 07:38 35.22006 -80.93867 732 ft 3 kts 205°
2026-04-22 07:38 35.21983 -80.93881 732 ft 5 kts 205°
2026-04-22 07:38 35.21950 -80.93931 732 ft 10 kts 248°
2026-04-22 07:39 35.21939 -80.94013 732 ft 11 kts 264°
2026-04-22 07:39 35.21919 -80.94107 732 ft 12 kts 252°
2026-04-22 07:39 35.21899 -80.94185 732 ft 0 kts 252°
2026-04-22 07:39 35.21897 -80.94193 732 ft 0 kts 251°